Location: Newark
(41.8083°N, 72.2500°W)
Time: 10:13:27
(UTC+00:00)

Explorer 11/Cluster Stage 4 - Pass Details

Date: 09 December 2021
Orbit: 467 x 1255 km, 28.8° (Epoch: 23 January)

Event Time Altitude Azimuth Distance (km) Brightness Sun altitude
Rises 07:29:43 0° 250° (WSW) 3,244 - -50.2°
Reaches altitude 10° 07:32:31 10° 235° (SW) 2,455 - -49.7°
Maximum altitude 07:37:02 22° 185° (S) 1,922 - -48.9°
Drops below altitude 10° 07:42:15 10° 138° (SE) 2,883 - -48.0°
Exits shadow 07:43:04 - 134° (SE) 3,115 9.9 -47.8°
Sets 07:45:52 0° 124° (SE) 3,966 10.6 -47.3°
